[[{"header":{"parameterUnit":"m.s-1","parameterCategory":1,"la1":30.2991,"la2":30.254,"lo1":-89.0895,"lo2":-89.0444,"dy":0.0017,"dx":0.0017,"nx":28,"ny":28,"refTime":"2024-11-29T03:00:00:Z","depth":0,"parameterNumber":2,"parameterNumberName":"U-component_of_WINDS"},"data":[0,0,0,0,0,0,0,0,0,0,0,0,0,0,0,0,0,0,0,0,0,0,0,0,0,0,0,0,0,0,0,0,0,0,0,0,0,0,0,0,0,0,0,0,0,0,0,0,0,0,0,0,0,0,0,0,0,0,-1.2465,-1.2466,0,-1.2525,-1.2526,-1.2527,-1.2483,-1.2481,-1.2479,-1.2477,-1.2541,-1.2544,-1.2548,0,0,0,0,0,0,0,0,0,0,0,0,0,-1.2313,-1.2316,-1.2465,-1.2466,-1.2467,-1.2525,-1.2526,-1.2527,-1.2483,-1.2481,-1.2479,-1.2476,-1.2539,-1.2544,-1.2548,0,0,0,0,0,0,0,0,0,0,0,0,0,-1.2377,-1.2317,-1.2465,-1.2452,-1.2451,-1.2525,-1.2526,-1.2527,-1.2484,-1.2481,-1.2478,-1.2475,-1.2538,-1.2543,-1.2548,-1.2639,0,0,-1.2564,-1.2567,0,0,0,0,0,0,0,0,-1.2373,-1.2382,-1.2453,-1.2453,-1.2452,-1.2494,-1.2496,-1.2565,-1.2484,-1.2472,-1.2477,-1.2474,-1.2527,-1.2533,-1.2551,-1.2642,-1.2645,-1.2565,-1.2568,-1.257,-1.2572,0,0,0,0,0,0,0,-1.2369,-1.2379,-1.2489,-1.2454,-1.2454,-1.2443,-1.2449,-1.2509,-1.2515,-1.2472,-1.2469,-1.2477,-1.2527,-1.2546,-1.2552,-1.2646,-1.2565,-1.2569,-1.2573,-1.2575,-1.2813,-1.2816,0,0,0,0,0,0,-1.2365,-1.2376,-1.2487,-1.2491,-1.2405,-1.2448,-1.2455,-1.2483,-1.2514,-1.2516,-1.2479,-1.2475,-1.2539,-1.2546,-1.2554,-1.2663,-1.257,-1.2575,-1.2578,-1.281,-1.2814,-1.2817,0,0,0,0,0,0,-1.2362,-1.2376,-1.2485,-1.2433,-1.2446,-1.2454,-1.2486,-1.2486,-1.2506,-1.252,-1.2521,-1.2498,-1.2537,-1.2547,-1.2618,-1.2664,-1.2578,-1.2582,-1.2806,-1.2811,-1.2815,-1.288,0,0,0,0,0,0,-1.2358,-1.2375,-1.241,-1.2434,-1.2449,-1.2548,-1.2489,-1.2489,-1.2515,-1.2509,-1.2537,-1.2539,-1.2535,-1.261,-1.2623,-1.267,-1.2586,-1.2802,-1.2808,-1.2814,-1.2874,-1.2886,-1.2897,0,0,0,0,0,-1.2353,-1.2426,-1.2412,-1.2425,-1.2492,-1.255,-1.2559,-1.2552,-1.2518,-1.2553,-1.2562,-1.2539,-1.2656,-1.2618,-1.2632,-1.2681,-1.2799,-1.2806,-1.2813,-1.2868,-1.2884,-1.2897,0,0,0,0,0,0,-1.2408,-1.2429,-1.2413,-1.2496,-1.2522,-1.2543,-1.2587,-1.2569,-1.2605,-1.2598,-1.2588,-1.2595,-1.267,-1.2682,-1.2639,-1.277,-1.2722,-1.2733,-1.2759,-1.2774,-1.2786,-1.2782,-1.2591,0,0,0,0,0,-1.243,-1.2475,-1.2491,-1.2563,-1.2576,-1.2579,-1.2604,-1.2597,-1.2623,-1.2634,-1.2648,-1.2674,-1.2717,-1.2746,-1.2786,-1.2874,-1.288,-1.2915,-1.2926,-1.2936,-1.2945,-1.2992,-1.3008,-1.2841,-1.284,-1.284,0,0,-1.2476,-1.2492,-1.2522,-1.2574,-1.2593,-1.264,-1.2589,-1.2641,-1.2676,-1.2642,-1.271,-1.2721,-1.275,-1.2829,-1.2865,-1.2842,-1.2992,-1.2945,-1.2952,-1.2957,-1.3001,-1.3017,-1.3031,-1.2845,-1.2844,-1.2844,0,0,-1.2583,-1.26,-1.2662,-1.2681,-1.271,-1.2711,-1.2726,-1.2749,-1.2755,-1.2823,-1.2798,-1.2839,-1.2913,-1.2935,-1.2955,-1.3069,-1.3048,-1.3082,-1.3144,-1.3189,-1.3203,-1.3214,-1.3255,-1.327,-1.3091,-1.3091,-1.3091,0,-1.2637,-1.2707,-1.2696,-1.275,-1.2774,-1.2743,-1.2805,-1.2825,-1.2865,-1.2882,-1.2855,-1.2947,-1.2964,-1.3049,-1.3076,-1.3093,-1.311,-1.308,-1.3201,-1.3213,-1.3224,-1.3263,-1.3278,-1.3095,-1.3095,-1.3094,-1.3094,0,-1.2772,-1.282,-1.2867,-1.2906,-1.2934,-1.2992,-1.299,-1.302,-1.3009,-1.3013,-1.3082,-1.3101,-1.3144,-1.3163,-1.3153,-1.3246,-1.323,-1.3203,-1.3155,-1.3244,-1.328,-1.3295,-1.3101,-1.3099,-1.3098,-1.3097,0,0,-1.2919,-1.2949,-1.2967,-1.2984,-1.3012,-1.3049,-1.3105,-1.3147,-1.3173,-1.3201,-1.3248,-1.331,-1.3284,-1.3307,-1.3299,-1.3339,-1.3428,-1.3306,-1.3307,-1.3329,-1.3531,-1.3553,-1.3571,-1.3414,-1.3416,-1.3419,-1.3529,0,-1.3029,-1.3126,-1.3117,-1.3209,-1.3254,-1.3224,-1.3273,-1.3295,-1.33,-1.3339,-1.3343,-1.3388,-1.335,-1.3364,-1.3402,-1.3409,-1.3469,-1.3401,-1.3458,-1.346,-1.3453,-1.3589,-1.3613,-1.3717,-1.3543,-1.3545,-1.3547,0,-1.3171,-1.3203,-1.33,-1.332,-1.3339,-1.3383,-1.3419,-1.3456,-1.348,-1.3481,-1.3506,-1.349,-1.3546,-1.3496,-1.3573,-1.3527,-1.3549,-1.3556,-1.356,-1.3566,-1.351,-1.3601,-1.3749,-1.3765,-1.3569,-1.3568,-1.3566,0,-1.327,-1.3337,-1.3404,-1.3419,-1.3444,-1.3475,-1.3487,-1.3508,-1.3534,-1.3565,-1.3581,-1.3619,-1.3641,-1.367,-1.3665,-1.3629,-1.3744,-1.3693,-1.3746,-1.3746,-1.3774,-1.3772,-1.3929,-1.3785,-1.3785,-1.3785,-1.3784,0,-1.3395,-1.3455,-1.3448,-1.3489,-1.3556,-1.3544,-1.361,-1.3618,-1.3637,-1.3679,-1.3655,-1.3695,-1.3685,-1.3725,-1.3721,-1.3785,-1.3794,-1.3797,-1.3795,-1.38,-1.38,-1.3816,-1.3809,-1.3789,-1.3788,-1.3787,-1.3786,0,-1.3517,-1.3515,-1.3586,-1.3602,-1.3608,-1.3657,-1.3671,-1.371,-1.3711,-1.3764,-1.3776,-1.3779,-1.3824,-1.3821,-1.3872,-1.3869,-1.3949,-1.3938,-1.3941,-1.3939,-1.3993,-1.3988,-1.4167,-1.419,-1.403,-1.4032,-1.4033,0,-1.3598,-1.3644,-1.3665,-1.3691,-1.3705,-1.3747,-1.3772,-1.3761,-1.3788,-1.3818,-1.3854,-1.3896,-1.393,-1.4003,-1.4009,-1.4048,-1.4039,-1.4098,-1.4045,-1.4047,-1.4041,-1.4039,-1.4043,-1.411,-1.4112,-1.4113,-1.4114,0,-1.3742,-1.3738,-1.3775,-1.3811,-1.3841,-1.3869,-1.3895,-1.3917,-1.3909,-1.394,-1.3986,-1.4012,-1.4063,-1.4105,-1.4142,-1.4153,-1.4133,-1.4131,-1.4145,-1.4151,-1.4151,-1.4153,-1.3971,-1.4127,-1.4126,-1.4125,-1.4124,-1.4124,-1.3847,-1.3886,-1.3907,-1.3948,-1.3966,-1.399,-1.4027,-1.4032,-1.4069,-1.411,-1.4101,-1.4152,-1.4173,-1.4219,-1.4235,-1.4274,-1.4253,-1.4274,-1.4279,-1.4285,-1.4292,-1.4143,-1.4281,-1.428,-1.428,-1.428,-1.4279,0,-1.3991,-1.4002,-1.404,-1.4076,-1.4108,-1.4084,-1.411,-1.4139,-1.4184,-1.4206,-1.4239,-1.429,-1.433,-1.4339,-1.4378,-1.4408,-1.4399,-1.4418,-1.4417,-1.442,-1.4308,-1.4292,-1.4425,-1.4425,-1.4425,-1.4425,-1.4425,-1.4425,-1.4069,-1.4134,-1.4132,-1.4205,-1.4215,-1.4265,-1.4282,-1.4304,-1.432,-1.4379,-1.4412,-1.4417,-1.4433,-1.4472,-1.4508,-1.451,-1.4525,-1.4549,-1.4547,-1.4442,-1.4428,-1.4414,-1.4399,-1.4552,-1.4552,-1.4655,-1.4656,-1.4657]},{"header":{"parameterUnit":"m.s-1","parameterCategory":1,"la1":30.2991,"la2":30.254,"lo1":-89.0895,"lo2":-89.0444,"dy":0.0017,"dx":0.0017,"nx":28,"ny":28,"refTime":"2024-11-29T03:00:00:Z","depth":0,"parameterNumber":3,"parameterNumberName":"V-component_of_WINDS"},"data":[0,0,0,0,0,0,0,0,0,0,0,0,0,0,0,0,0,0,0,0,0,0,0,0,0,0,0,0,0,0,0,0,0,0,0,0,0,0,0,0,0,0,0,0,0,0,0,0,0,0,0,0,0,0,0,0,0,0,-8.0255,-8.0257,0,-8.0415,-8.0417,-8.0419,-8.0314,-8.0309,-8.0304,-8.03,-8.0458,-8.0466,-8.0475,0,0,0,0,0,0,0,0,0,0,0,0,0,-7.985,-7.9858,-8.0255,-8.0257,-8.0259,-8.0415,-8.0417,-8.0419,-8.0315,-8.0309,-8.0303,-8.0298,-8.0455,-8.0465,-8.0476,0,0,0,0,0,0,0,0,0,0,0,0,0,-8.002,-7.9861,-8.0254,-8.0226,-8.0225,-8.0415,-8.0417,-8.042,-8.0316,-8.0309,-8.0302,-8.0295,-8.0452,-8.0464,-8.0477,-8.0702,0,0,-8.0517,-8.0523,0,0,0,0,0,0,0,0,-8.001,-8.0035,-8.0228,-8.0228,-8.0227,-8.0337,-8.0332,-8.0514,-8.0318,-8.0281,-8.03,-8.0291,-8.0423,-8.0438,-8.0484,-8.071,-8.0717,-8.0518,-8.0526,-8.0532,-8.0535,0,0,0,0,0,0,0,-7.9999,-8.0027,-8.0318,-8.0231,-8.023,-8.0202,-8.0218,-8.0366,-8.0391,-8.0284,-8.0277,-8.0297,-8.0422,-8.0472,-8.0487,-8.0719,-8.0518,-8.0529,-8.0538,-8.0543,-8.1135,-8.1143,0,0,0,0,0,0,-7.999,-8.0018,-8.0313,-8.0323,-8.0099,-8.0215,-8.0233,-8.0309,-8.0389,-8.0394,-8.0303,-8.0292,-8.0453,-8.0472,-8.0492,-8.076,-8.0532,-8.0544,-8.0551,-8.1127,-8.1137,-8.1145,0,0,0,0,0,0,-7.9982,-8.0018,-8.0306,-8.0169,-8.0203,-8.023,-8.0316,-8.0316,-8.0366,-8.0404,-8.0407,-8.0351,-8.0448,-8.0474,-8.0651,-8.0764,-8.055,-8.0562,-8.1118,-8.113,-8.1141,-8.1299,0,0,0,0,0,0,-7.9971,-8.0015,-8.0103,-8.0172,-8.0211,-8.0466,-8.0323,-8.0325,-8.039,-8.0376,-8.0449,-8.0454,-8.0444,-8.0632,-8.0664,-8.0778,-8.0572,-8.1108,-8.1123,-8.1137,-8.1283,-8.1314,-8.1341,0,0,0,0,0,-7.9957,-8.014,-8.0108,-8.0144,-8.0322,-8.0472,-8.0495,-8.0482,-8.0399,-8.0486,-8.051,-8.0451,-8.0747,-8.0651,-8.0686,-8.0806,-8.1101,-8.1119,-8.1136,-8.127,-8.1308,-8.134,0,0,0,0,0,0,-8.0082,-8.0149,-8.0114,-8.0325,-8.0394,-8.0454,-8.0564,-8.0522,-8.0615,-8.0598,-8.0576,-8.0593,-8.0778,-8.0809,-8.0702,-8.1027,-8.091,-8.0936,-8.1,-8.1036,-8.1065,-8.1053,-8.0583,0,0,0,0,0,-8.0135,-8.0254,-8.0304,-8.0485,-8.0522,-8.0538,-8.0602,-8.0587,-8.0656,-8.0684,-8.0721,-8.0789,-8.0896,-8.0968,-8.1069,-8.1287,-8.13,-8.1386,-8.1415,-8.1438,-8.1461,-8.1577,-8.1615,-8.1204,-8.1204,-8.1203,0,0,-8.0244,-8.0295,-8.0371,-8.0512,-8.0564,-8.0685,-8.0563,-8.0696,-8.0785,-8.0704,-8.0874,-8.0903,-8.0977,-8.1176,-8.1265,-8.1207,-8.1577,-8.1461,-8.148,-8.1489,-8.1599,-8.1638,-8.1672,-8.1216,-8.1214,-8.1212,0,0,-8.0505,-8.0557,-8.0713,-8.0767,-8.0847,-8.0856,-8.0894,-8.0961,-8.0977,-8.1148,-8.1089,-8.1193,-8.138,-8.1435,-8.1487,-8.1768,-8.1716,-8.1801,-8.1951,-8.2064,-8.2097,-8.2125,-8.2224,-8.226,-8.1823,-8.1823,-8.1824,0,-8.063,-8.0813,-8.0798,-8.0937,-8.0999,-8.0933,-8.1089,-8.1142,-8.125,-8.1294,-8.1228,-8.1461,-8.1506,-8.1715,-8.1784,-8.1829,-8.1869,-8.1793,-8.2094,-8.2122,-8.2148,-8.2243,-8.228,-8.1833,-8.1832,-8.1831,-8.183,0,-8.0963,-8.109,-8.1206,-8.1315,-8.139,-8.1537,-8.1542,-8.162,-8.1597,-8.1612,-8.1785,-8.1837,-8.1947,-8.1995,-8.1974,-8.2202,-8.2163,-8.2097,-8.1979,-8.2198,-8.2286,-8.2322,-8.1847,-8.1844,-8.1841,-8.1838,0,0,-8.1308,-8.1406,-8.1449,-8.1497,-8.158,-8.1677,-8.1819,-8.1929,-8.1996,-8.2072,-8.219,-8.2349,-8.2287,-8.2346,-8.233,-8.2429,-8.2647,-8.235,-8.2351,-8.2403,-8.29,-8.295,-8.2992,-8.2613,-8.262,-8.2626,-8.2893,0,-8.1574,-8.1826,-8.1815,-8.2049,-8.2165,-8.2103,-8.2227,-8.229,-8.2307,-8.2406,-8.2424,-8.2537,-8.2447,-8.2483,-8.2578,-8.2601,-8.2746,-8.2581,-8.2721,-8.2726,-8.2704,-8.3038,-8.3092,-8.3342,-8.2928,-8.2933,-8.2938,0,-8.1918,-8.2008,-8.2254,-8.2319,-8.2367,-8.2479,-8.2578,-8.2675,-8.2743,-8.2749,-8.2815,-8.2782,-8.2924,-8.2803,-8.2996,-8.2884,-8.294,-8.2959,-8.2968,-8.2981,-8.2845,-8.3059,-8.3421,-8.3459,-8.2992,-8.2988,-8.2984,0,-8.2144,-8.2327,-8.2498,-8.254,-8.262,-8.27,-8.2737,-8.2799,-8.2865,-8.295,-8.2992,-8.3093,-8.3147,-8.3224,-8.3218,-8.3131,-8.3414,-8.3293,-8.3421,-8.3421,-8.3484,-8.348,-8.386,-8.3521,-8.352,-8.3519,-8.3519,0,-8.2442,-8.2595,-8.26,-8.2706,-8.2874,-8.2859,-8.3026,-8.3053,-8.3109,-8.3216,-8.3167,-8.3268,-8.3255,-8.3355,-8.3351,-8.3511,-8.3536,-8.3543,-8.354,-8.3548,-8.3547,-8.3584,-8.3566,-8.3529,-8.3527,-8.3525,-8.3523,0,-8.2724,-8.2734,-8.2916,-8.2977,-8.2996,-8.3117,-8.3168,-8.3266,-8.3279,-8.3415,-8.3446,-8.3466,-8.3582,-8.3584,-8.3716,-8.3713,-8.3908,-8.3886,-8.3886,-8.3882,-8.401,-8.3997,-8.4427,-8.4482,-8.4107,-8.4111,-8.4114,0,-8.2913,-8.303,-8.3103,-8.3173,-8.3215,-8.3327,-8.3395,-8.3383,-8.3455,-8.3542,-8.363,-8.3741,-8.383,-8.4018,-8.4043,-8.4143,-8.4122,-8.4266,-8.4137,-8.414,-8.4123,-8.4117,-8.4127,-8.4291,-8.4295,-8.4298,-8.4301,0,-8.3248,-8.3247,-8.3347,-8.345,-8.3533,-8.3612,-8.3686,-8.3744,-8.3741,-8.3824,-8.3943,-8.4012,-8.4148,-8.4259,-8.4356,-8.439,-8.4345,-8.4341,-8.4376,-8.4385,-8.438,-8.4384,-8.3954,-8.4332,-8.4329,-8.4326,-8.4325,-8.4323,-8.3489,-8.3589,-8.3657,-8.377,-8.3824,-8.3894,-8.3989,-8.4014,-8.4114,-8.4225,-8.4211,-8.4344,-8.4407,-8.4533,-8.4576,-8.4678,-8.4627,-8.4678,-8.4691,-8.4704,-8.4717,-8.4365,-8.4695,-8.4694,-8.4693,-8.4693,-8.4692,0,-8.382,-8.3861,-8.3965,-8.407,-8.4159,-8.411,-8.4189,-8.4265,-8.4383,-8.4447,-8.4536,-8.4672,-8.4779,-8.4812,-8.4915,-8.499,-8.4972,-8.5017,-8.5011,-8.502,-8.4757,-8.4716,-8.503,-8.503,-8.503,-8.503,-8.503,-8.503,-8.4003,-8.417,-8.4177,-8.437,-8.4408,-8.4539,-8.4588,-8.4651,-8.4702,-8.4857,-8.4947,-8.4968,-8.5019,-8.5125,-8.522,-8.5226,-8.5266,-8.532,-8.5319,-8.5072,-8.5038,-8.5006,-8.4968,-8.5329,-8.533,-8.5573,-8.5575,-8.5577]}]]